Regional Weather Roundup
Issued by NWS

Home | Current Version | Previous Version | Text Only | Print | Product List | Glossary Off
Versions: 1 2 3 4 5 6 7 8 9 10 11 12 13 14 15 16 17 18 19 20 21 22 23 24 25 26 27 28 29 30 31 32 33 34 35 36 37 38 39 40 41 42 43 44 45 46 47 48 49 50

000
ASUS44 KMEG 221100
RWRTN
TENNESSEE HOURLY STATE WEATHER ROUNDUP
NATIONAL WEATHER SERVICE MEMPHIS TN
600 AM CDT SUN APR 22 2018

TNZ002-004-019-021-049-052-054-088>092-221200-
WEST TENNESSEE

CITY           SKY/WX    TMP DP  RH WIND       PRES   REMARKS
MEMPHIS INTL   RAIN      59  58  96 E8        30.00F
NWS MEMPHIS      N/A     57 N/A N/A MISG        N/A
JACKSON        CLOUDY    57  55  93 E7        30.05F
DYERSBURG      RAIN      55  53  93 E8        30.07F FOG
$$

TNZ008-025-027-028-033-062-065-066-221200-
NORTH MIDDLE TENNESSEE

CITY           SKY/WX    TMP DP  RH WIND       PRES   REMARKS
NASHVILLE      CLOUDY    57  45  62 N3        30.16S
CLARKSVILLE    FAIR      54  42  64 E6        30.14S
SMYRNA         CLOUDY    55  46  71 CALM      30.17S
CROSSVILLE     FAIR      54  39  57 CALM      30.22R
$$

TNZ061-075-076-078-094-096-097-221200-
SOUTH MIDDLE TENNESSEE

CITY           SKY/WX    TMP DP  RH WIND       PRES   REMARKS
$$

TNZ017-018-042-046-047-221200-
NORTHEAST TENNESSEE

CITY           SKY/WX    TMP DP  RH WIND       PRES   REMARKS
TRI CITIES     MOCLDY    42  38  85 CALM      30.28R
$$

TNZ012-013-036-069-073-074-221200-
CENTRAL EAST TENNESSEE

CITY           SKY/WX    TMP DP  RH WIND       PRES   REMARKS
KNOXVILLE      MOCLDY    50  43  77 NE5       30.22S
OAK RIDGE      FAIR      48  44  86 CALM      30.25R
$$

TNZ083-085-099-221200-
SOUTHEAST TENNESSEE

CITY           SKY/WX    TMP DP  RH WIND       PRES   REMARKS
CHATTANOOGA    MOCLDY    61  47  59 SE5       30.21S
$$

SKY/WX REPORTED AS FAIR MEANS FEW OR NO CLOUDS BELOW
12 THOUSAND FEET.





USA.gov is the U.S. government's official web portal to all federal, state and local government web resources and services.